#timestamp,LO_Frequency,Hit,StdDev 
1576378815.3,286046998.3,N
1576378835.1,286046999.4,N
1576378855.9,286046997.1,N
1576378875.7,286046998.5,N
1576378895.5,286047000.9,N
1576378915.4,286047001.6,N
1576378935.2,286047002.3,N
1576378955.1,286047002.7,N
1576378956.0,286047002.7,N
1576378975.8,286047000.5,N
1576378995.6,286047000.2,N
1576379015.5,286047002.8,N
1576379035.3,286047001.0,N
1576379055.1,286046998.2,N
1576379075.9,286046998.7,N
1576379095.7,286046999.8,N
1576379115.6,286047002.8,N
1576379135.4,286047001.1,N
1576379155.2,286046999.5,N
1576379175.1,286047000.7,N
1576379176.0,286047000.7,N
1576379195.8,286046998.8,N
1576379215.6,286046999.5,N
1576379235.5,286047000.9,N
1576379255.3,286046999.8,N
1576379275.2,286047002.4,N
1576379295.9,286047004.2,N
1576379315.7,286047001.3,N
1576379335.6,286047003.6,N
1576379355.4,286047003.0,N
1576379375.2,286047004.0,N
1576379395.1,286047004.1,N
1576379396.0,286047004.1,N
1576379415.8,286046999.9,N
1576379435.7,286047000.5,N
1576379455.5,286047000.1,N
1576379475.3,286047000.9,N
1576379495.2,286047001.2,N
1576379515.0,286046996.5,N
1576379515.9,286046996.5,N
1576379535.7,286046998.9,N
1576379555.6,286046998.6,N
1576379575.4,286046999.9,N
1576379595.3,286046999.1,N
1576379615.1,286046999.3,N
1576379616.0,286046999.3,N
1576379635.8,286046998.1,N
1576379655.7,286046998.6,N
1576379675.5,286046999.2,N
1576379695.3,286047000.8,N
1576379715.2,286046999.9,N
1576379735.0,286047002.0,N
1576379735.9,286047002.0,N
1576379755.8,286047000.1,N
1576379775.6,286046998.1,N
1576379795.4,286046998.5,N
1576379815.3,286046999.7,N
1576379835.1,286047000.2,N
1576379855.8,286046998.4,N
1576379875.7,286047000.7,N
1576379895.5,286046999.5,N
1576379915.4,286046999.1,N
1576379935.2,286046999.5,N
1576379955.0,286047002.3,N
1576379955.9,286047002.3,N
1576379975.8,286047002.1,N
1576379995.6,286047000.6,N
1576380015.5,286046996.5,N
1576380035.3,286046999.3,N
1576380055.1,286047000.9,N
1576380075.9,286046998.2,N
1576380095.7,286047000.3,N
1576380115.5,286046996.5,N
1576380135.4,286046999.6,N
1576380155.2,286047001.1,N
1576380175.1,286046999.4,N
1576380176.0,286046999.4,N
1576380195.8,286046998.8,N
1576380215.6,286046999.2,N
1576380235.5,286046999.1,N
1576380255.3,286046999.3,N
1576380275.1,286046999.6,N
1576380295.9,286046998.3,N
1576380315.7,286046997.2,N
1576380335.6,286046996.8,N
1576380355.4,286046996.8,N
1576380375.2,286046997.4,N
1576380395.1,286046997.6,N
1576380396.0,286046997.6,N
1576380415.8,286046999.4,N
1576380435.6,286047000.9,N
1576380455.5,286047001.5,N
1576380475.3,286047000.4,N
1576380495.2,286047000.6,N
1576380515.9,286047001.2,N
1576380535.7,286046998.9,N
1576380555.6,286046998.3,N
1576380575.4,286047000.4,N
1576380595.2,286047000.9,N
1576380615.1,286046999.8,N
1576380616.0,286046999.8,N
1576380635.8,286047001.9,N
1576380655.7,286046999.9,N
1576380675.5,286047001.0,N
1576380695.3,286047000.4,N
1576380715.2,286047000.4,N
1576380735.0,286047001.6,N
1576380735.9,286047001.6,N
1576380755.7,286047002.1,N
1576380775.6,286047003.7,N
1576380795.4,286047005.5,Y
1576380815.3,286047003.9,P
1576380835.1,286047004.3,N
1576380855.8,286047004.1,N
1576380875.7,286047004.4,N
1576380895.5,286047002.0,N
1576380915.3,286047002.4,N
1576380935.2,286047000.9,N
1576380955.0,286047000.5,N
1576380955.9,286047000.5,N
1576380975.8,286047000.4,N
1576380995.6,286047000.0,N
1576381015.4,286047000.9,N
1576381035.3,286047001.2,N
1576381055.1,286047001.1,N
1576381075.9,286046998.5,N
1576381095.7,286046998.3,N
1576381115.5,286046999.2,N
1576381135.4,286046998.8,N
1576381155.2,286047002.2,N
1576381175.0,286047001.8,N
1576381175.9,286047001.8,N
1576381195.8,286047002.5,N
1576381215.6,286046999.7,N
1576381235.5,286047000.4,N
1576381255.3,286046999.4,N
1576381275.1,286047001.2,N
1576381295.9,286047001.2,N
1576381315.7,286046998.9,N
1576381335.5,286046998.7,N
1576381355.4,286046999.5,N
1576381375.2,286046999.4,N
1576381395.0,286046999.8,N
1576381396.0,286046999.8,N
1576381415.8,286046999.7,N
1576381435.6,286046998.6,N
1576381455.5,286046998.9,N
1576381475.3,286046996.5,Y
1576381495.1,286046996.5,P
1576381515.9,286046999.3,N
1576381535.7,286046998.9,N
1576381555.6,286047002.8,N
1576381575.4,286046998.2,N
1576381595.2,286047000.1,N
1576381615.1,286047002.4,N
1576381616.0,286047002.4,N
1576381635.8,286047001.1,N
1576381655.6,286047001.1,N
1576381675.5,286046996.5,N
1576381695.3,286046996.8,N
1576381715.1,286046996.6,N
1576381735.9,286046999.1,N
1576381755.7,286046996.9,N
1576381775.6,286046996.7,N
1576381795.4,286046998.1,N
1576381815.2,286046999.6,N
1576381835.1,286046999.5,N
1576381836.0,286046999.5,N
1576381855.8,286046999.6,N
1576381875.7,286046999.4,N
1576381895.5,286046999.6,N
1576381915.3,286046999.1,N
1576381935.2,286046999.2,N
1576381955.0,286046998.6,N
1576381955.9,286046998.6,N
1576381975.7,286046999.1,N
1576381995.6,286046998.3,N
1576382015.4,286047000.4,N
1576382035.3,286047001.9,N
1576382055.1,286047002.8,N
1576382056.0,286047002.8,N
1576382075.8,286047000.3,N
1576382095.7,286046998.6,N
1576382115.5,286046998.6,N
1576382135.3,286047000.5,N
1576382155.2,286046998.1,N
1576382175.0,286046998.7,N
1576382175.9,286046998.7,N
1576382195.8,286046999.5,N
1576382215.6,286046998.2,N
1576382235.4,286046999.3,N
1576382255.3,286046996.6,N
1576382275.1,286046999.4,N
1576382295.8,286046998.4,N
1576382315.7,286047000.0,N
1576382335.5,286047000.4,N
1576382355.4,286046999.8,N
1576382375.2,286047000.8,N
1576382395.0,286047000.9,N
1576382395.9,286047000.9,N
